This is the latest recevied weather packets stored in our database for station/object EA3ANS-1. If no packets are shown the sender has not sent any weather packets the latest 10 day(s).
| Time | Temp. | Humidity | Pressure | Rain* | Wind** | Luminosity | Snow |
|---|---|---|---|---|---|---|---|
| 1777436430 | 16.11° C | - | 1011 hPa | 0 mm | 0 m/s | - | - |
| 1777435823 | 16.11° C | - | 1010.9 hPa | 0 mm | 2.68 m/s, 38° | - | - |
| 1777435225 | 16.11° C | - | 1010.7 hPa | 0 mm | 2.68 m/s, 14° | - | - |
| 1777434628 | 16.67° C | - | 1011.2 hPa | 0 mm | 2.24 m/s, 1° | - | - |
| 1777434023 | 16.67° C | - | 1011.1 hPa | 0 mm | 2.24 m/s, 66° | - | - |
| 1777433426 | 17.22° C | - | 1011.3 hPa | 0 mm | 1.34 m/s, 56° | - | - |
| 1777432829 | 16.67° C | - | 1011.4 hPa | 0 mm | 3.13 m/s, 94° | - | - |
| 1777432229 | 16.67° C | - | 1011.5 hPa | 0 mm | 1.79 m/s, 103° | - | - |
| 1777431626 | 16.67° C | - | 1011.5 hPa | 0 mm | 1.34 m/s, 73° | - | - |
| 1777431029 | 16.67° C | - | 1011.5 hPa | 0 mm | 3.13 m/s, 41° | - | - |
| 1777430425 | 16.67° C | - | 1011.6 hPa | 0 mm | 2.68 m/s, 52° | - | - |
| 1777429827 | 17.22° C | - | 1011.9 hPa | 0 mm | 1.79 m/s, 76° | - | - |
| 1777429230 | 16.67° C | - | 1011.9 hPa | 0 mm | 1.79 m/s, 60° | - | - |
| 1777428629 | 16.67° C | - | 1011.9 hPa | 0 mm | 1.79 m/s, 69° | - | - |
| 1777428032 | 16.67° C | - | 1011.9 hPa | 0 mm | 2.68 m/s, 45° | - | - |
| 1777427429 | 16.67° C | - | 1011.8 hPa | 0 mm | 2.24 m/s, 23° | - | - |
| 1777426826 | 16.67° C | - | 1011.9 hPa | 0 mm | 1.34 m/s, 59° | - | - |
| 1777426228 | 16.67° C | - | 1011.9 hPa | 0 mm | 3.58 m/s, 89° | - | - |
| 1777425631 | 16.67° C | - | 1012 hPa | 0 mm | 1.34 m/s, 94° | - | - |
| 1777425033 | 17.22° C | - | 1012.2 hPa | 0 mm | 0.89 m/s, 62° | - | - |
| 1777424436 | 16.67° C | - | 1012.1 hPa | 0 mm | 1.79 m/s, 83° | - | - |
| 1777423829 | 16.67° C | - | 1012.3 hPa | 0 mm | 2.24 m/s, 0° | - | - |
| 1777423226 | 17.22° C | - | 1012.5 hPa | 0 mm | 2.24 m/s, 70° | - | - |
| 1777422628 | 16.67° C | - | 1012.5 hPa | 0 mm | 0.89 m/s, 73° | - | - |
| 1777422031 | 16.67° C | - | 1012.5 hPa | 0 mm | 0.89 m/s, 48° | - | - |
* Rain latest hour (hover to see other rain measurements)
** Current wind speed in m/s (hover to see current wind gust speed)